| time (UTC) | temp F | wind direction | speed MPH | gust MPH | rain 1hr in | rain 24hr in | rain mn in | humidity % | barometer mb |
| 20260502130511 | 51 | 10 | 1.0 | 2.0 | 0.00 | 0.00 | 0.02 | 49 | 1025.4 |
| 20260502130446 | 51 | 10 | 1.0 | 1.0 | 0.00 | 0.02 | 0.02 | 49 | 1018.6 |
| 20260502123428 | 51 | 10 | 1.0 | 1.0 | 0.00 | 0.02 | 0.02 | 45 | 1018.4 |
| 20260502123011 | 52 | 10 | 2.0 | 2.0 | 0.00 | 0.00 | 0.02 | 44 | 1025.3 |
| 20260502122926 | 52 | 10 | 1.0 | 1.0 | 0.00 | 0.02 | 0.02 | 45 | 1018.5 |
| 20260502122507 | 51 | 10 | 2.0 | 3.0 | 0.00 | 0.00 | 0.02 | 44 | 1025.3 |
| 20260502122422 | 51 | 10 | 2.0 | 2.0 | 0.00 | 0.02 | 0.02 | 45 | 1018.3 |
| 20260502122009 | 51 | 11 | 2.0 | 3.0 | 0.00 | 0.00 | 0.02 | 46 | 1025.3 |
| 20260502121920 | 51 | 11 | 0.0 | 0.0 | 0.00 | 0.02 | 0.02 | 48 | 1018.4 |
| 20260502121517 | 52 | 12 | 2.0 | 3.0 | 0.00 | 0.00 | 0.02 | 44 | 1025.2 |
| 20260502121417 | 52 | 12 | 2.0 | 2.0 | 0.00 | 0.02 | 0.02 | 44 | 1018.5 |
| 20260502120915 | 52 | 12 | 2.0 | 2.0 | 0.00 | 0.02 | 0.02 | 45 | 1018.4 |
| 20260502120410 | 52 | 18 | 2.0 | 2.0 | 0.00 | 0.02 | 0.02 | 46 | 1018.1 |
| 20260502115908 | 52 | 33 | 1.0 | 1.0 | 0.00 | 0.02 | 0.02 | 48 | 1018.1 |
| 20260502115507 | 52 | 33 | 2.0 | 3.0 | 0.00 | 0.00 | 0.02 | 47 | 1024.8 |
| 20260502115405 | 52 | 33 | 1.0 | 2.0 | 0.00 | 0.02 | 0.02 | 47 | 1018.0 |
| 20260502115005 | 52 | 33 | 1.0 | 2.0 | 0.00 | 0.00 | 0.02 | 44 | 1024.8 |
| 20260502114901 | 52 | 33 | 0.0 | 1.0 | 0.00 | 0.02 | 0.02 | 45 | 1018.0 |
| 20260502114507 | 53 | 33 | 1.0 | 2.0 | 0.00 | 0.00 | 0.02 | 47 | 1024.6 |
| 20260502114358 | 53 | 33 | 1.0 | 2.0 | 0.00 | 0.02 | 0.02 | 47 | 1017.8 |
| 20260502114007 | 53 | 33 | 2.0 | 3.0 | 0.00 | 0.00 | 0.02 | 45 | 1024.6 |
| 20260502113855 | 53 | 33 | 2.0 | 2.0 | 0.00 | 0.02 | 0.02 | 45 | 1017.7 |
| 20260502113352 | 53 | 34 | 0.0 | 1.0 | 0.00 | 0.02 | 0.02 | 40 | 1017.8 |
| 20260502113006 | 53 | 33 | 2.0 | 3.0 | 0.00 | 0.00 | 0.02 | 44 | 1024.7 |
| 20260502112851 | 53 | 33 | 1.0 | 2.0 | 0.00 | 0.02 | 0.02 | 42 | 1017.6 |
| 20260502112506 | 53 | 34 | 2.0 | 3.0 | 0.00 | 0.00 | 0.02 | 46 | 1024.4 |
| 20260502112348 | 53 | 33 | 1.0 | 2.0 | 0.00 | 0.02 | 0.02 | 48 | 1017.6 |
| 20260502112005 | 53 | 34 | 2.0 | 2.0 | 0.00 | 0.00 | 0.02 | 42 | 1024.6 |
| 20260502111845 | 53 | 34 | 1.0 | 1.0 | 0.00 | 0.02 | 0.02 | 47 | 1017.5 |
| 20260502111505 | 54 | 33 | 0.0 | 2.0 | 0.00 | 0.00 | 0.02 | 41 | 1024.3 |
| 20260502111342 | 54 | 33 | 0.0 | 1.0 | 0.00 | 0.02 | 0.02 | 41 | 1017.4 |
| 20260502111006 | 54 | 33 | 1.0 | 2.0 | 0.00 | 0.00 | 0.02 | 40 | 1024.2 |
| 20260502110840 | 54 | 33 | 0.0 | 1.0 | 0.00 | 0.02 | 0.02 | 37 | 1017.2 |
| 20260502110506 | 54 | 33 | 0.0 | 2.0 | 0.00 | 0.00 | 0.02 | 38 | 1024.1 |
| 20260502110338 | 54 | 33 | 1.0 | 1.0 | 0.00 | 0.02 | 0.02 | 39 | 1016.9 |
| 20260502110006 | 54 | 33 | 1.0 | 3.0 | 0.00 | 0.00 | 0.02 | 38 | 1023.8 |
| 20260502105835 | 54 | 33 | 2.0 | 2.0 | 0.00 | 0.02 | 0.02 | 39 | 1016.9 |
| 20260502105332 | 55 | 33 | 1.0 | 2.0 | 0.00 | 0.02 | 0.02 | 39 | 1016.9 |
| 20260502105005 | 55 | 30 | 1.0 | 2.0 | 0.00 | 0.00 | 0.02 | 39 | 1023.8 |
| 20260502104830 | 55 | 30 | 1.0 | 1.0 | 0.00 | 0.02 | 0.02 | 38 | 1016.9 |
| 20260502104327 | 55 | 31 | 1.0 | 1.0 | 0.00 | 0.02 | 0.02 | 37 | 1016.5 |
| 20260502103824 | 55 | 30 | 0.0 | 1.0 | 0.00 | 0.02 | 0.02 | 36 | 1016.7 |
| 20260502103321 | 55 | 30 | 0.0 | 2.0 | 0.00 | 0.02 | 0.02 | 37 | 1016.8 |
| 20260502103005 | 56 | 30 | 1.0 | 3.0 | 0.00 | 0.00 | 0.02 | 37 | 1023.5 |
| 20260502102819 | 56 | 30 | 0.0 | 1.0 | 0.00 | 0.02 | 0.02 | 36 | 1016.5 |
| 20260502102505 | 56 | 30 | 1.0 | 2.0 | 0.00 | 0.00 | 0.02 | 37 | 1023.5 |
| 20260502102315 | 56 | 30 | 1.0 | 1.0 | 0.00 | 0.02 | 0.02 | 36 | 1016.3 |
| 20260502102005 | 56 | 30 | 2.0 | 2.0 | 0.00 | 0.00 | 0.02 | 36 | 1023.3 |
| 20260502101813 | 55 | 30 | 0.0 | 0.0 | 0.00 | 0.02 | 0.02 | 37 | 1016.4 |
| 20260502101311 | 56 | 30 | 1.0 | 1.0 | 0.00 | 0.02 | 0.02 | 37 | 1016.3 |
| 20260502101005 | 56 | 25 | 1.0 | 2.0 | 0.00 | 0.00 | 0.02 | 39 | 1023.1 |
| 20260502100809 | 56 | 301 | 0.0 | 0.0 | 0.00 | 0.02 | 0.02 | 38 | 1016.1 |
| 20260502100308 | 57 | 301 | 0.0 | 0.0 | 0.00 | 0.02 | 0.02 | 34 | 1016.3 |
| 20260502091241 | 62 | 268 | 0.0 | 0.0 | 0.00 | 0.02 | 0.02 | 27 | 1015.4 |
| 20260502091005 | 63 | 268 | 0.0 | 0.0 | 0.00 | 0.00 | 0.02 | 25 | 1022.6 |
| 20260502090738 | 63 | 268 | 0.0 | 1.0 | 0.00 | 0.02 | 0.02 | 21 | 1015.6 |
| 20260502090504 | 63 | 271 | 2.0 | 4.0 | 0.00 | 0.00 | 0.02 | 19 | 1022.5 |
| 20260502090235 | 63 | 245 | 0.0 | 1.0 | 0.00 | 0.02 | 0.02 | 21 | 1015.4 |
| 20260502071505 | 66 | 343 | 1.0 | 4.0 | 0.00 | 0.00 | 0.02 | 14 | 1021.6 |
| 20260502071136 | 66 | 295 | 2.0 | 5.0 | 0.00 | 0.02 | 0.02 | 13 | 1014.4 |
| 20260502070634 | 67 | 300 | 5.0 | 6.0 | 0.00 | 0.02 | 0.02 | 13 | 1014.4 |
| 20260502070131 | 67 | 271 | 3.0 | 3.0 | 0.00 | 0.02 | 0.02 | 13 | 1014.3 |
| 20260502070004 | 67 | 316 | 2.0 | 4.0 | 0.00 | 0.00 | 0.02 | 13 | 1021.6 |
| 20260502065630 | 67 | 282 | 0.0 | 3.0 | 0.00 | 0.02 | 0.02 | 14 | 1014.3 |
| 20260502065505 | 67 | 273 | 3.0 | 4.0 | 0.00 | 0.00 | 0.02 | 13 | 1021.5 |
| 20260502065127 | 67 | 142 | 1.0 | 2.0 | 0.00 | 0.02 | 0.02 | 14 | 1014.3 |
| 20260502065005 | 67 | 320 | 2.0 | 4.0 | 0.00 | 0.00 | 0.02 | 13 | 1021.4 |
| 20260502064626 | 67 | 175 | 1.0 | 2.0 | 0.00 | 0.02 | 0.02 | 14 | 1014.2 |
| 20260502064505 | 67 | 171 | 1.0 | 3.0 | 0.00 | 0.00 | 0.02 | 14 | 1021.4 |
| 20260502064122 | 67 | 30 | 1.0 | 3.0 | 0.00 | 0.02 | 0.02 | 14 | 1014.2 |
| 20260502063620 | 67 | 281 | 3.0 | 5.0 | 0.00 | 0.02 | 0.02 | 13 | 1014.1 |
| 20260502063117 | 67 | 241 | 1.0 | 6.0 | 0.00 | 0.02 | 0.02 | 13 | 1014.2 |
| 20260502063004 | 67 | 271 | 3.0 | 6.0 | 0.00 | 0.00 | 0.02 | 13 | 1021.2 |
| 20260502062614 | 67 | 272 | 1.0 | 7.0 | 0.00 | 0.02 | 0.02 | 13 | 1014.2 |
| 20260502062506 | 67 | 302 | 5.0 | 7.0 | 0.00 | 0.00 | 0.02 | 12 | 1021.3 |
| 20260502062112 | 67 | 222 | 2.0 | 6.0 | 0.00 | 0.02 | 0.02 | 12 | 1014.1 |
| 20260502062004 | 67 | 27 | 4.0 | 6.0 | 0.00 | 0.00 | 0.02 | 11 | 1021.4 |
| 20260502061610 | 67 | 225 | 5.0 | 8.0 | 0.00 | 0.02 | 0.02 | 14 | 1014.1 |
| 20260502061108 | 68 | 0 | 0.0 | 8.0 | 0.00 | 0.02 | 0.02 | 15 | 1013.8 |
| 20260502061005 | 68 | 260 | 4.0 | 9.0 | 0.00 | 0.00 | 0.02 | 13 | 1021.2 |
| 20260502060607 | 67 | 359 | 5.0 | 6.0 | 0.00 | 0.02 | 0.02 | 15 | 1013.6 |
| 20260502060105 | 67 | 205 | 4.0 | 5.0 | 0.00 | 0.02 | 0.02 | 15 | 1013.6 |
| 20260502060005 | 67 | 264 | 2.0 | 4.0 | 0.00 | 0.00 | 0.02 | 14 | 1021.1 |
| 20260502055602 | 68 | 211 | 3.0 | 7.0 | 0.00 | 0.02 | 0.02 | 13 | 1013.6 |
| 20260502055505 | 68 | 222 | 2.0 | 4.0 | 0.00 | 0.00 | 0.02 | 13 | 1020.9 |
| 20260502055100 | 69 | 285 | 3.0 | 8.0 | 0.00 | 0.02 | 0.02 | 11 | 1013.6 |
| 20260502055004 | 69 | 272 | 3.0 | 4.0 | 0.00 | 0.00 | 0.02 | 14 | 1021.0 |
| 20260502054559 | 68 | 260 | 1.0 | 6.0 | 0.00 | 0.02 | 0.02 | 14 | 1013.4 |
| 20260502054055 | 67 | 281 | 2.0 | 5.0 | 0.00 | 0.02 | 0.02 | 14 | 1013.5 |
| 20260502054005 | 67 | 349 | 3.0 | 7.0 | 0.00 | 0.00 | 0.02 | 12 | 1020.6 |
| 20260502053553 | 68 | 339 | 3.0 | 3.0 | 0.00 | 0.02 | 0.02 | 13 | 1013.2 |
| 20260502053050 | 68 | 289 | 6.0 | 7.0 | 0.00 | 0.02 | 0.02 | 11 | 1013.5 |
| 20260502053005 | 68 | 289 | 6.0 | 7.0 | 0.00 | 0.00 | 0.02 | 11 | 1020.8 |
| 20260502052549 | 69 | 3 | 5.0 | 6.0 | 0.00 | 0.02 | 0.02 | 12 | 1013.1 |
| 20260502052504 | 69 | 3 | 6.0 | 6.0 | 0.00 | 0.00 | 0.02 | 12 | 1020.4 |
| 20260502052046 | 69 | 277 | 5.0 | 5.0 | 0.00 | 0.02 | 0.02 | 13 | 1013.3 |
| 20260502052005 | 69 | 277 | 5.0 | 5.0 | 0.00 | 0.00 | 0.02 | 13 | 1020.6 |
| 20260502051544 | 68 | 252 | 1.0 | 3.0 | 0.00 | 0.02 | 0.02 | 13 | 1013.3 |
| 20260502051042 | 68 | 281 | 1.0 | 7.0 | 0.00 | 0.02 | 0.02 | 13 | 1013.0 |
| 20260502051005 | 68 | 281 | 1.0 | 7.0 | 0.00 | 0.00 | 0.02 | 13 | 1020.3 |
| 20260502050537 | 68 | 266 | 3.0 | 7.0 | 0.00 | 0.02 | 0.02 | 13 | 1012.9 |
| 20260502050035 | 69 | 334 | 1.0 | 5.0 | 0.00 | 0.02 | 0.02 | 14 | 1013.0 |
| 20260502045531 | 68 | 204 | 2.0 | 3.0 | 0.00 | 0.02 | 0.02 | 15 | 1013.1 |
| 20260502045504 | 68 | 204 | 2.0 | 4.0 | 0.00 | 0.00 | 0.02 | 15 | 1020.4 |
| 20260502045029 | 68 | 273 | 4.0 | 8.0 | 0.00 | 0.02 | 0.02 | 13 | 1013.3 |
| 20260502045005 | 68 | 273 | 4.0 | 9.0 | 0.00 | 0.00 | 0.02 | 13 | 1020.6 |
| 20260502044525 | 69 | 329 | 2.0 | 6.0 | 0.00 | 0.02 | 0.02 | 15 | 1013.3 |
| 20260502044505 | 69 | 329 | 2.0 | 6.0 | 0.00 | 0.00 | 0.02 | 15 | 1020.6 |
| 20260502044022 | 69 | 268 | 3.0 | 6.0 | 0.00 | 0.02 | 0.02 | 15 | 1013.4 |
| 20260502043519 | 69 | 234 | 3.0 | 5.0 | 0.00 | 0.02 | 0.02 | 15 | 1013.3 |
| 20260502043505 | 69 | 234 | 4.0 | 5.0 | 0.00 | 0.00 | 0.02 | 15 | 1020.6 |
| 20260502043015 | 68 | 287 | 2.0 | 7.0 | 0.00 | 0.02 | 0.02 | 13 | 1013.3 |
| 20260502042510 | 70 | 205 | 2.0 | 5.0 | 0.00 | 0.02 | 0.02 | 14 | 1013.2 |
| 20260502042505 | 70 | 205 | 3.0 | 5.0 | 0.00 | 0.00 | 0.02 | 14 | 1020.5 |
| 20260502042008 | 69 | 75 | 2.0 | 7.0 | 0.00 | 0.02 | 0.02 | 14 | 1013.1 |
| 20260502042004 | 69 | 75 | 2.0 | 7.0 | 0.00 | 0.00 | 0.02 | 14 | 1020.4 |
| 20260502041506 | 69 | 342 | 6.0 | 7.0 | 0.00 | 0.02 | 0.02 | 15 | 1013.2 |
| 20260502041504 | 69 | 342 | 6.0 | 7.0 | 0.00 | 0.00 | 0.02 | 15 | 1020.5 |
| 20260502041003 | 69 | 291 | 3.0 | 5.0 | 0.00 | 0.02 | 0.02 | 14 | 1013.3 |
| 20260502040459 | 67 | 187 | 1.0 | 5.0 | 0.00 | 0.02 | 0.02 | 15 | 1013.1 |
| 20260502040005 | 68 | 238 | 4.0 | 5.0 | 0.00 | 0.00 | 0.02 | 16 | 1020.1 |
| 20260502035956 | 68 | 238 | 3.0 | 5.0 | 0.00 | 0.02 | 0.02 | 16 | 1012.7 |
| 20260502035504 | 69 | 253 | 5.0 | 10.0 | 0.00 | 0.00 | 0.02 | 15 | 1020.3 |
| 20260502035451 | 68 | 200 | 3.0 | 6.0 | 0.00 | 0.02 | 0.02 | 15 | 1013.0 |
| 20260502035005 | 68 | 250 | 5.0 | 7.0 | 0.00 | 0.00 | 0.02 | 16 | 1020.1 |
| 20260502034950 | 67 | 309 | 3.0 | 11.0 | 0.00 | 0.02 | 0.02 | 16 | 1012.9 |
| 20260502034448 | 68 | 246 | 3.0 | 5.0 | 0.00 | 0.02 | 0.02 | 17 | 1012.5 |
| 20260502034006 | 69 | 219 | 3.0 | 10.0 | 0.00 | 0.00 | 0.02 | 17 | 1020.1 |
| 20260502033946 | 70 | 266 | 8.0 | 9.0 | 0.00 | 0.02 | 0.02 | 15 | 1012.6 |
| 20260502033443 | 68 | 1 | 2.0 | 5.0 | 0.00 | 0.02 | 0.02 | 15 | 1012.5 |
| 20260502033004 | 68 | 299 | 3.0 | 7.0 | 0.00 | 0.00 | 0.02 | 17 | 1019.8 |
| 20260502032940 | 68 | 278 | 3.0 | 10.0 | 0.00 | 0.02 | 0.02 | 17 | 1012.5 |
| 20260502032436 | 69 | 182 | 3.0 | 3.0 | 0.00 | 0.02 | 0.02 | 18 | 1012.5 |
| 20260502032004 | 70 | 295 | 2.0 | 6.0 | 0.00 | 0.00 | 0.02 | 15 | 1020.2 |
| 20260502031933 | 69 | 315 | 2.0 | 5.0 | 0.00 | 0.02 | 0.02 | 18 | 1012.4 |
| 20260502031505 | 69 | 291 | 5.0 | 9.0 | 0.00 | 0.00 | 0.02 | 17 | 1020.0 |
| 20260502031432 | 69 | 206 | 5.0 | 8.0 | 0.00 | 0.02 | 0.02 | 17 | 1012.6 |
| 20260502030930 | 68 | 270 | 3.0 | 6.0 | 0.00 | 0.02 | 0.02 | 17 | 1012.6 |
| 20260502030428 | 69 | 301 | 2.0 | 5.0 | 0.00 | 0.02 | 0.02 | 17 | 1012.7 |
| 20260502030005 | 69 | 319 | 2.0 | 6.0 | 0.00 | 0.00 | 0.02 | 17 | 1020.0 |
| 20260502025925 | 69 | 270 | 1.0 | 7.0 | 0.00 | 0.02 | 0.02 | 18 | 1012.7 |
| 20260502025422 | 69 | 246 | 2.0 | 7.0 | 0.00 | 0.02 | 0.02 | 18 | 1012.4 |
| 20260502025005 | 69 | 327 | 4.0 | 7.0 | 0.00 | 0.00 | 0.02 | 17 | 1020.0 |
| 20260502024920 | 68 | 272 | 5.0 | 7.0 | 0.00 | 0.02 | 0.02 | 19 | 1012.4 |
| 20260502024505 | 69 | 236 | 5.0 | 6.0 | 0.00 | 0.00 | 0.02 | 18 | 1019.8 |
| 20260502024418 | 69 | 265 | 3.0 | 5.0 | 0.00 | 0.02 | 0.02 | 18 | 1012.3 |
| 20260502023916 | 69 | 225 | 3.0 | 6.0 | 0.00 | 0.02 | 0.02 | 17 | 1012.2 |
| 20260502023505 | 68 | 288 | 4.0 | 6.0 | 0.00 | 0.00 | 0.02 | 19 | 1019.5 |
| 20260502023413 | 68 | 271 | 5.0 | 6.0 | 0.00 | 0.02 | 0.02 | 20 | 1012.0 |
| 20260502023004 | 69 | 99 | 2.0 | 7.0 | 0.00 | 0.00 | 0.02 | 19 | 1019.4 |
| 20260502022910 | 69 | 229 | 5.0 | 7.0 | 0.00 | 0.02 | 0.02 | 20 | 1012.3 |
| 20260502022505 | 69 | 251 | 2.0 | 4.0 | 0.00 | 0.00 | 0.02 | 20 | 1019.4 |
| 20260502022407 | 69 | 281 | 3.0 | 5.0 | 0.00 | 0.02 | 0.02 | 21 | 1012.2 |
| 20260502022005 | 69 | 33 | 4.0 | 5.0 | 0.00 | 0.00 | 0.02 | 20 | 1019.3 |
| 20260502021903 | 69 | 33 | 4.0 | 5.0 | 0.00 | 0.02 | 0.02 | 20 | 1011.9 |
| 20260502021505 | 67 | 352 | 1.0 | 7.0 | 0.00 | 0.00 | 0.02 | 21 | 1019.6 |
| 20260502021401 | 67 | 218 | 4.0 | 7.0 | 0.00 | 0.02 | 0.02 | 21 | 1012.0 |
| 20260502021005 | 67 | 282 | 4.0 | 12.0 | 0.00 | 0.00 | 0.02 | 21 | 1019.6 |
| 20260502020858 | 66 | 267 | 1.0 | 3.0 | 0.00 | 0.02 | 0.02 | 22 | 1012.1 |
| 20260502020356 | 68 | 286 | 4.0 | 8.0 | 0.00 | 0.02 | 0.02 | 20 | 1012.2 |
| 20260502020005 | 68 | 4 | 6.0 | 9.0 | 0.00 | 0.00 | 0.02 | 21 | 1019.3 |
| 20260502015852 | 66 | 270 | 1.0 | 5.0 | 0.00 | 0.02 | 0.02 | 24 | 1012.1 |
| 20260502015350 | 67 | 294 | 5.0 | 8.0 | 0.00 | 0.02 | 0.02 | 20 | 1011.8 |
| 20260502015005 | 66 | 280 | 2.0 | 11.0 | 0.00 | 0.00 | 0.02 | 23 | 1019.4 |
| 20260502014847 | 66 | 164 | 3.0 | 7.0 | 0.00 | 0.02 | 0.02 | 24 | 1012.0 |
| 20260502014344 | 67 | 292 | 3.0 | 7.0 | 0.00 | 0.02 | 0.02 | 23 | 1011.6 |
| 20260502013840 | 67 | 278 | 3.0 | 7.0 | 0.00 | 0.02 | 0.02 | 26 | 1012.1 |
| 20260502013505 | 66 | 215 | 2.0 | 5.0 | 0.00 | 0.00 | 0.02 | 27 | 1019.2 |
| 20260502013335 | 66 | 93 | 4.0 | 5.0 | 0.00 | 0.02 | 0.02 | 27 | 1012.1 |
| 20260502012832 | 66 | 264 | 1.0 | 5.0 | 0.00 | 0.02 | 0.02 | 29 | 1011.4 |
| 20260502012330 | 65 | 169 | 6.0 | 10.0 | 0.00 | 0.02 | 0.02 | 30 | 1011.4 |
| 20260502012004 | 65 | 200 | 6.0 | 9.0 | 0.00 | 0.00 | 0.02 | 28 | 1019.2 |
| 20260502011827 | 64 | 305 | 2.0 | 3.0 | 0.00 | 0.02 | 0.02 | 30 | 1011.4 |
| 20260502011504 | 65 | 180 | 6.0 | 11.0 | 0.00 | 0.00 | 0.02 | 28 | 1018.8 |
| 20260502011323 | 65 | 260 | 3.0 | 5.0 | 0.00 | 0.02 | 0.02 | 27 | 1011.8 |
| 20260502011005 | 65 | 186 | 3.0 | 11.0 | 0.00 | 0.00 | 0.02 | 25 | 1018.8 |
| 20260502010821 | 64 | 322 | 3.0 | 3.0 | 0.00 | 0.02 | 0.02 | 30 | 1011.4 |
| 20260502010317 | 64 | 270 | 1.0 | 5.0 | 0.00 | 0.02 | 0.02 | 29 | 1011.4 |
| 20260502010004 | 64 | 214 | 2.0 | 5.0 | 0.00 | 0.00 | 0.02 | 32 | 1018.9 |
| 20260502005814 | 64 | 289 | 2.0 | 6.0 | 0.00 | 0.02 | 0.02 | 28 | 1011.5 |
| 20260502005505 | 65 | 304 | 3.0 | 7.0 | 0.00 | 0.00 | 0.02 | 28 | 1018.7 |
| 20260502005312 | 65 | 265 | 3.0 | 5.0 | 0.00 | 0.02 | 0.02 | 29 | 1011.4 |
| 20260502004809 | 64 | 6 | 4.0 | 5.0 | 0.00 | 0.02 | 0.02 | 29 | 1011.4 |
| 20260502004505 | 64 | 207 | 2.0 | 3.0 | 0.00 | 0.00 | 0.02 | 34 | 1019.1 |
| 20260502004305 | 64 | 270 | 1.0 | 6.0 | 0.00 | 0.02 | 0.02 | 31 | 1011.3 |
| 20260502004005 | 63 | 225 | 3.0 | 5.0 | 0.00 | 0.00 | 0.02 | 30 | 1019.0 |
| 20260502003803 | 63 | 190 | 4.0 | 6.0 | 0.00 | 0.02 | 0.02 | 31 | 1011.2 |
| 20260502003505 | 63 | 266 | 3.0 | 6.0 | 0.00 | 0.00 | 0.02 | 29 | 1018.8 |
| 20260502003259 | 63 | 338 | 4.0 | 5.0 | 0.00 | 0.02 | 0.02 | 32 | 1011.1 |
| 20260502003004 | 63 | 279 | 2.0 | 7.0 | 0.00 | 0.00 | 0.02 | 31 | 1018.7 |
| 20260502002755 | 63 | 279 | 3.0 | 6.0 | 0.00 | 0.02 | 0.02 | 31 | 1011.1 |
| 20260502002505 | 63 | 27 | 1.0 | 5.0 | 0.00 | 0.00 | 0.02 | 35 | 1018.4 |
| 20260502002253 | 63 | 289 | 3.0 | 3.0 | 0.00 | 0.02 | 0.02 | 31 | 1010.7 |
| 20260502002006 | 63 | 230 | 3.0 | 5.0 | 0.00 | 0.00 | 0.02 | 31 | 1018.4 |
| 20260502001750 | 62 | 192 | 0.0 | 1.0 | 0.00 | 0.02 | 0.02 | 34 | 1010.8 |
| 20260502001248 | 61 | 239 | 2.0 | 6.0 | 0.00 | 0.02 | 0.02 | 35 | 1010.7 |
| 20260502000746 | 62 | 273 | 2.0 | 5.0 | 0.00 | 0.02 | 0.02 | 34 | 1010.8 |
| 20260502000505 | 62 | 187 | 2.0 | 5.0 | 0.00 | 0.00 | 0.02 | 36 | 1018.3 |
| 20260502000244 | 61 | 202 | 1.0 | 5.0 | 0.00 | 0.02 | 0.02 | 38 | 1010.5 |
| 20260502000005 | 61 | 260 | 5.0 | 7.0 | 0.00 | 0.00 | 0.02 | 37 | 1018.2 |
| 20260501235738 | 61 | 299 | 2.0 | 3.0 | 0.00 | 0.02 | 0.02 | 37 | 1010.7 |
| 20260501235505 | 62 | 296 | 5.0 | 7.0 | 0.00 | 0.02 | 0.02 | 35 | 1018.0 |
| 20260501235235 | 62 | 325 | 1.0 | 5.0 | 0.00 | 0.02 | 0.02 | 36 | 1010.2 |
| 20260501235005 | 61 | 257 | 2.0 | 5.0 | 0.00 | 0.02 | 0.02 | 41 | 1017.8 |
| 20260501234731 | 60 | 34 | 0.0 | 3.0 | 0.00 | 0.02 | 0.02 | 41 | 1010.2 |
| 20260501234505 | 60 | 92 | 1.0 | 4.0 | 0.00 | 0.02 | 0.02 | 40 | 1018.0 |
| 20260501234228 | 59 | 243 | 0.0 | 3.0 | 0.00 | 0.02 | 0.02 | 43 | 1010.1 |
| 20260501233726 | 59 | 331 | 3.0 | 7.0 | 0.00 | 0.02 | 0.02 | 43 | 1010.0 |
| 20260501233505 | 59 | 269 | 2.0 | 6.0 | 0.00 | 0.00 | 0.02 | 41 | 1017.5 |
| 20260501233224 | 59 | 269 | 3.0 | 5.0 | 0.00 | 0.02 | 0.02 | 41 | 1010.1 |
| 20260501233004 | 58 | 206 | 2.0 | 6.0 | 0.00 | 0.00 | 0.02 | 43 | 1017.8 |
| 20260501232718 | 58 | 50 | 1.0 | 2.0 | 0.00 | 0.02 | 0.02 | 47 | 1010.1 |
| 20260501232505 | 58 | 144 | 1.0 | 7.0 | 0.00 | 0.00 | 0.02 | 46 | 1017.5 |
| 20260501232216 | 59 | 145 | 3.0 | 6.0 | 0.00 | 0.02 | 0.02 | 43 | 1010.1 |
| 20260501232004 | 59 | 210 | 4.0 | 5.0 | 0.00 | 0.00 | 0.02 | 45 | 1017.4 |
| 20260501231714 | 59 | 27 | 2.0 | 3.0 | 0.00 | 0.02 | 0.02 | 45 | 1009.8 |
| 20260501231505 | 58 | 185 | 3.0 | 4.0 | 0.00 | 0.00 | 0.02 | 46 | 1017.3 |
| 20260501231212 | 57 | 183 | 2.0 | 3.0 | 0.00 | 0.02 | 0.02 | 47 | 1009.9 |
| 20260501231005 | 57 | 167 | 5.0 | 6.0 | 0.00 | 0.00 | 0.02 | 46 | 1017.7 |
| 20260501230710 | 56 | 185 | 1.0 | 2.0 | 0.00 | 0.02 | 0.02 | 46 | 1010.0 |
| 20260501230208 | 56 | 248 | 1.0 | 5.0 | 0.00 | 0.02 | 0.02 | 51 | 1009.7 |
| 20260501230005 | 56 | 21 | 3.0 | 5.0 | 0.00 | 0.00 | 0.02 | 50 | 1017.3 |
| 20260501225705 | 55 | 183 | 1.0 | 5.0 | 0.00 | 0.02 | 0.02 | 49 | 1009.4 |
| 20260501225202 | 54 | 358 | 2.0 | 2.0 | 0.00 | 0.02 | 0.02 | 53 | 1009.8 |
| 20260501225005 | 54 | 24 | 1.0 | 4.0 | 0.00 | 0.00 | 0.02 | 54 | 1017.5 |
| 20260501224658 | 54 | 15 | 0.0 | 3.0 | 0.00 | 0.02 | 0.02 | 56 | 1009.4 |
| 20260501224156 | 53 | 82 | 1.0 | 1.0 | 0.00 | 0.02 | 0.02 | 58 | 1009.3 |
| 20260501224006 | 53 | 38 | 2.0 | 3.0 | 0.00 | 0.00 | 0.02 | 58 | 1017.1 |
| 20260501223652 | 53 | 307 | 2.0 | 2.0 | 0.00 | 0.02 | 0.02 | 58 | 1009.4 |
| 20260501223149 | 52 | 270 | 0.0 | 2.0 | 0.00 | 0.02 | 0.02 | 62 | 1009.2 |
| 20260501222645 | 51 | 270 | 1.0 | 6.0 | 0.00 | 0.02 | 0.02 | 61 | 1009.2 |
| 20260501222505 | 51 | 310 | 2.0 | 4.0 | 0.00 | 0.00 | 0.02 | 60 | 1016.9 |
| 20260501222142 | 51 | 41 | 1.0 | 3.0 | 0.00 | 0.02 | 0.02 | 62 | 1009.2 |
| 20260501222005 | 51 | 352 | 1.0 | 4.0 | 0.00 | 0.00 | 0.02 | 61 | 1017.0 |
| 20260501221638 | 51 | 345 | 2.0 | 3.0 | 0.00 | 0.02 | 0.02 | 59 | 1009.3 |
| 20260501221137 | 51 | 356 | 2.0 | 2.0 | 0.00 | 0.02 | 0.02 | 62 | 1008.9 |
| 20260501221005 | 50 | 34 | 1.0 | 4.0 | 0.00 | 0.00 | 0.02 | 62 | 1016.8 |
| 20260501220634 | 50 | 20 | 2.0 | 2.0 | 0.00 | 0.02 | 0.02 | 63 | 1008.8 |
| 20260501220504 | 50 | 309 | 1.0 | 3.0 | 0.00 | 0.00 | 0.02 | 62 | 1017.0 |
| 20260501220130 | 50 | 0 | 2.0 | 3.0 | 0.00 | 0.02 | 0.02 | 63 | 1008.8 |
| 20260501220005 | 50 | 273 | 2.0 | 4.0 | 0.00 | 0.00 | 0.02 | 63 | 1016.5 |
| 20260501215627 | 50 | 286 | 1.0 | 2.0 | 0.00 | 0.02 | 0.02 | 64 | 1008.6 |
| 20260501215504 | 50 | 3 | 2.0 | 3.0 | 0.00 | 0.00 | 0.02 | 62 | 1016.2 |
| 20260501215122 | 50 | 230 | 4.0 | 6.0 | 0.00 | 0.02 | 0.02 | 62 | 1008.8 |
| 20260501215005 | 50 | 322 | 3.0 | 6.0 | 0.00 | 0.00 | 0.02 | 63 | 1016.0 |
| 20260501214618 | 50 | 254 | 3.0 | 3.0 | 0.00 | 0.02 | 0.02 | 58 | 1008.3 |
| 20260501214113 | 51 | 334 | 2.0 | 5.0 | 0.00 | 0.02 | 0.02 | 57 | 1008.3 |
| 20260501213611 | 52 | 248 | 3.0 | 3.0 | 0.00 | 0.02 | 0.02 | 52 | 1008.0 |
| 20260501213504 | 52 | 223 | 2.0 | 4.0 | 0.00 | 0.00 | 0.02 | 52 | 1015.5 |
| 20260501213107 | 52 | 210 | 1.0 | 3.0 | 0.00 | 0.02 | 0.02 | 49 | 1008.0 |
| 20260501213005 | 52 | 245 | 2.0 | 5.0 | 0.00 | 0.00 | 0.02 | 51 | 1015.6 |
| 20260501212603 | 51 | 216 | 4.0 | 5.0 | 0.00 | 0.02 | 0.02 | 45 | 1007.8 |
| 20260501212504 | 51 | 359 | 2.0 | 4.0 | 0.00 | 0.00 | 0.02 | 47 | 1015.6 |
| 20260501212100 | 49 | 277 | 3.0 | 5.0 | 0.00 | 0.02 | 0.02 | 58 | 1007.8 |
| 20260501212004 | 49 | 187 | 3.0 | 4.0 | 0.00 | 0.00 | 0.02 | 59 | 1015.4 |
| 20260501211556 | 48 | 262 | 1.0 | 2.0 | 0.00 | 0.02 | 0.02 | 64 | 1007.8 |
| 20260501211055 | 47 | 33 | 1.0 | 3.0 | 0.00 | 0.02 | 0.02 | 65 | 1007.2 |
| 20260501211005 | 47 | 86 | 1.0 | 4.0 | 0.00 | 0.00 | 0.02 | 68 | 1015.4 |
| 20260501210550 | 46 | 190 | 3.0 | 6.0 | 0.00 | 0.02 | 0.02 | 68 | 1007.3 |
| 20260501210048 | 46 | 42 | 1.0 | 2.0 | 0.00 | 0.02 | 0.02 | 73 | 1007.1 |
| 20260501210004 | 46 | 60 | 2.0 | 3.0 | 0.00 | 0.00 | 0.02 | 73 | 1015.1 |
| 20260501205544 | 46 | 125 | 2.0 | 2.0 | 0.00 | 0.02 | 0.02 | 73 | 1007.1 |
| 20260501205505 | 46 | 43 | 2.0 | 3.0 | 0.00 | 0.00 | 0.02 | 72 | 1015.0 |
| 20260501205042 | 46 | 107 | 1.0 | 2.0 | 0.00 | 0.02 | 0.02 | 72 | 1007.0 |
| 20260501205004 | 46 | 127 | 2.0 | 4.0 | 0.00 | 0.00 | 0.02 | 72 | 1014.9 |
| 20260501204538 | 46 | 64 | 1.0 | 2.0 | 0.00 | 0.02 | 0.02 | 72 | 1007.1 |
| 20260501204034 | 46 | 141 | 0.0 | 3.0 | 0.00 | 0.02 | 0.02 | 72 | 1007.3 |
| 20260501204005 | 46 | 138 | 2.0 | 5.0 | 0.00 | 0.00 | 0.02 | 72 | 1014.7 |
| 20260501203531 | 46 | 46 | 1.0 | 3.0 | 0.00 | 0.02 | 0.02 | 73 | 1007.1 |
| 20260501203504 | 46 | 184 | 3.0 | 4.0 | 0.00 | 0.00 | 0.02 | 73 | 1014.9 |
| 20260501203029 | 46 | 206 | 2.0 | 3.0 | 0.00 | 0.02 | 0.02 | 74 | 1006.9 |
| 20260501203004 | 46 | 175 | 2.0 | 4.0 | 0.00 | 0.00 | 0.02 | 74 | 1014.8 |
| 20260501202525 | 46 | 210 | 0.0 | 5.0 | 0.00 | 0.02 | 0.02 | 75 | 1006.8 |
| 20260501202505 | 46 | 175 | 5.0 | 5.0 | 0.00 | 0.00 | 0.02 | 75 | 1014.4 |
| 20260501202022 | 46 | 185 | 0.0 | 3.0 | 0.00 | 0.02 | 0.02 | 74 | 1006.6 |
| 20260501202005 | 46 | 88 | 3.0 | 5.0 | 0.00 | 0.00 | 0.02 | 74 | 1014.5 |
| 20260501201519 | 46 | 202 | 3.0 | 5.0 | 0.00 | 0.02 | 0.02 | 73 | 1006.5 |
| 20260501201504 | 46 | 146 | 5.0 | 5.0 | 0.00 | 0.00 | 0.02 | 73 | 1014.3 |
| 20260501201015 | 46 | 208 | 5.0 | 11.0 | 0.00 | 0.02 | 0.02 | 73 | 1006.5 |
| 20260501200513 | 45 | 312 | 0.0 | 5.0 | 0.00 | 0.02 | 0.02 | 76 | 1006.6 |
| 20260501200010 | 45 | 157 | 5.0 | 6.0 | 0.00 | 0.02 | 0.02 | 77 | 1006.5 |
| 20260501200005 | 45 | 157 | 5.0 | 6.0 | 0.00 | 0.00 | 0.02 | 77 | 1014.4 |
| 20260501195507 | 45 | 319 | 2.0 | 2.0 | 0.00 | 0.02 | 0.02 | 77 | 1006.5 |
| 20260501195505 | 45 | 319 | 2.0 | 3.0 | 0.00 | 0.00 | 0.02 | 77 | 1014.4 |
| 20260501195004 | 45 | 84 | 1.0 | 3.0 | 0.00 | 0.00 | 0.02 | 77 | 1014.6 |
| 20260501194505 | 45 | 183 | 3.0 | 4.0 | 0.00 | 0.00 | 0.02 | 77 | 1014.3 |
| 20260501194458 | 45 | 183 | 2.0 | 3.0 | 0.00 | 0.02 | 0.02 | 77 | 1006.4 |
| 20260501193954 | 45 | 76 | 0.0 | 2.0 | 0.00 | 0.02 | 0.02 | 77 | 1006.0 |
| 20260501193507 | 45 | 277 | 1.0 | 2.0 | 0.00 | 0.00 | 0.02 | 78 | 1013.9 |
| 20260501193452 | 45 | 277 | 0.0 | 1.0 | 0.00 | 0.02 | 0.02 | 78 | 1005.9 |
| 20260501193004 | 45 | 179 | 3.0 | 5.0 | 0.00 | 0.00 | 0.02 | 78 | 1013.7 |
| 20260501192950 | 45 | 179 | 3.0 | 5.0 | 0.00 | 0.02 | 0.02 | 78 | 1005.7 |
| 20260501192447 | 45 | 17 | 4.0 | 6.0 | 0.00 | 0.02 | 0.02 | 78 | 1005.8 |
| 20260501192007 | 45 | 346 | 4.0 | 7.0 | 0.00 | 0.00 | 0.02 | 78 | 1013.8 |
| 20260501191944 | 45 | 346 | 4.0 | 7.0 | 0.00 | 0.02 | 0.02 | 78 | 1005.8 |
| 20260501191441 | 45 | 252 | 1.0 | 1.0 | 0.00 | 0.02 | 0.02 | 78 | 1005.4 |
| 20260501191005 | 45 | 267 | 0.0 | 4.0 | 0.00 | 0.00 | 0.02 | 78 | 1013.4 |
| 20260501190938 | 45 | 267 | 0.0 | 3.0 | 0.00 | 0.02 | 0.02 | 78 | 1005.4 |
| 20260501190434 | 45 | 59 | 2.0 | 3.0 | 0.00 | 0.02 | 0.02 | 78 | 1005.0 |
| 20260501190004 | 45 | 283 | 1.0 | 3.0 | 0.00 | 0.00 | 0.02 | 78 | 1012.9 |
| 20260501185929 | 45 | 283 | 1.0 | 2.0 | 0.00 | 0.02 | 0.02 | 78 | 1004.8 |
| 20260501185505 | 46 | 44 | 4.0 | 7.0 | 0.00 | 0.00 | 0.02 | 78 | 1012.5 |
| 20260501185426 | 46 | 44 | 3.0 | 7.0 | 0.00 | 0.02 | 0.02 | 78 | 1004.4 |
| 20260501185004 | 46 | 171 | 2.0 | 3.0 | 0.00 | 0.00 | 0.02 | 77 | 1013.0 |
| 20260501184921 | 46 | 171 | 1.0 | 2.0 | 0.00 | 0.02 | 0.02 | 77 | 1004.9 |
| 20260501184505 | 46 | 50 | 2.0 | 7.0 | 0.00 | 0.00 | 0.02 | 77 | 1012.5 |
| 20260501184418 | 46 | 50 | 1.0 | 7.0 | 0.00 | 0.02 | 0.02 | 77 | 1004.4 |
| 20260501184004 | 46 | 173 | 2.0 | 5.0 | 0.00 | 0.00 | 0.02 | 76 | 1012.5 |
| 20260501183913 | 46 | 107 | 3.0 | 5.0 | 0.00 | 0.02 | 0.02 | 76 | 1004.5 |
| 20260501183505 | 46 | 204 | 4.0 | 5.0 | 0.04 | 0.00 | 0.02 | 77 | 1012.6 |
| 20260501183411 | 46 | 197 | 3.0 | 3.0 | 0.05 | 0.02 | 0.02 | 77 | 1004.0 |
| 20260501183005 | 46 | 71 | 2.0 | 3.0 | 0.04 | 0.00 | 0.02 | 77 | 1012.3 |
| 20260501182907 | 46 | 84 | 1.0 | 3.0 | 0.05 | 0.02 | 0.02 | 77 | 1004.1 |
| 20260501182505 | 46 | 169 | 4.0 | 5.0 | 0.00 | 0.00 | 0.01 | 77 | 1012.3 |
| 20260501182404 | 46 | 7 | 0.0 | 3.0 | 0.00 | 0.01 | 0.01 | 76 | 1004.1 |
| 20260501182005 | 47 | 344 | 1.0 | 4.0 | 0.00 | 0.00 | 0.01 | 75 | 1012.0 |
| 20260501181900 | 47 | 276 | 2.0 | 3.0 | 0.00 | 0.01 | 0.01 | 75 | 1003.4 |
| 20260501181505 | 47 | 268 | 1.0 | 9.0 | 0.00 | 0.00 | 0.01 | 74 | 1011.9 |
| 20260501181357 | 47 | 2 | 2.0 | 5.0 | 0.00 | 0.01 | 0.01 | 74 | 1003.4 |
| 20260501181004 | 47 | 308 | 4.0 | 5.0 | 0.00 | 0.00 | 0.01 | 73 | 1011.8 |
| 20260501180855 | 47 | 296 | 0.0 | 3.0 | 0.00 | 0.01 | 0.01 | 73 | 1003.4 |
| 20260501180505 | 47 | 227 | 2.0 | 6.0 | 0.00 | 0.00 | 0.01 | 72 | 1011.5 |
| 20260501180351 | 48 | 275 | 5.0 | 6.0 | 0.00 | 0.01 | 0.01 | 72 | 1003.5 |
| 20260501180005 | 48 | 336 | 6.0 | 13.0 | 0.00 | 0.00 | 0.01 | 71 | 1011.3 |
| 20260501175848 | 48 | 312 | 2.0 | 8.0 | 0.00 | 0.01 | 0.01 | 71 | 1002.9 |
| 20260501175504 | 48 | 326 | 5.0 | 9.0 | 0.00 | 0.00 | 0.01 | 70 | 1011.2 |
| 20260501175345 | 48 | 254 | 7.0 | 10.0 | 0.00 | 0.01 | 0.01 | 70 | 1002.8 |
| 20260501175004 | 48 | 297 | 5.0 | 10.0 | 0.00 | 0.00 | 0.01 | 69 | 1011.1 |
| 20260501174842 | 48 | 248 | 2.0 | 13.0 | 0.00 | 0.01 | 0.01 | 68 | 1002.7 |
| 20260501174339 | 49 | 302 | 3.0 | 7.0 | 0.00 | 0.01 | 0.01 | 68 | 1002.2 |
| 20260501174004 | 49 | 251 | 6.0 | 11.0 | 0.00 | 0.00 | 0.01 | 69 | 1010.5 |
| 20260501173837 | 48 | 247 | 3.0 | 14.0 | 0.00 | 0.01 | 0.01 | 68 | 1002.2 |
| 20260501173334 | 48 | 287 | 7.0 | 10.0 | 0.00 | 0.01 | 0.01 | 71 | 1001.7 |
| 20260501173004 | 48 | 317 | 6.0 | 9.0 | 0.00 | 0.00 | 0.01 | 73 | 1010.4 |
| 20260501172829 | 48 | 277 | 3.0 | 6.0 | 0.00 | 0.01 | 0.01 | 73 | 1001.7 |
| 20260501172505 | 47 | 282 | 14.0 | 15.0 | 0.00 | 0.00 | 0.01 | 77 | 1010.1 |
| 20260501172325 | 47 | 282 | 2.0 | 8.0 | 0.00 | 0.01 | 0.01 | 77 | 1001.6 |
| 20260501172004 | 46 | 208 | 1.0 | 9.0 | 0.00 | 0.00 | 0.01 | 78 | 1010.1 |
| 20260501171821 | 46 | 205 | 0.0 | 3.0 | 0.00 | 0.01 | 0.01 | 78 | 1001.4 |
| 20260501171318 | 46 | 287 | 4.0 | 6.0 | 0.00 | 0.01 | 0.01 | 78 | 1001.6 |
| 20260501171004 | 46 | 190 | 2.0 | 6.0 | 0.00 | 0.00 | 0.01 | 78 | 1009.9 |
| 20260501170814 | 46 | 208 | 3.0 | 5.0 | 0.00 | 0.01 | 0.01 | 78 | 1001.6 |
| 20260501170505 | 46 | 261 | 1.0 | 5.0 | 0.00 | 0.00 | 0.01 | 78 | 1010.0 |
| 20260501170311 | 46 | 225 | 5.0 | 7.0 | 0.00 | 0.01 | 0.01 | 78 | 1001.8 |
| 20260501170005 | 46 | 307 | 0.0 | 6.0 | 0.07 | 0.00 | 0.01 | 78 | 1010.0 |
| 20260501165809 | 46 | 223 | 1.0 | 1.0 | 0.07 | 0.01 | 0.01 | 78 | 1001.6 |
| 20260501165505 | 46 | 270 | 1.0 | 3.0 | 0.07 | 0.00 | 0.01 | 78 | 1010.4 |
| 20260501165307 | 46 | 233 | 0.0 | 2.0 | 0.07 | 0.01 | 0.01 | 78 | 1002.2 |
| 20260501165005 | 46 | 256 | 1.0 | 3.0 | 0.00 | 0.00 | 0.00 | 78 | 1010.3 |
| 20260501164804 | 46 | 329 | 0.0 | 1.0 | 0.00 | 0.00 | 0.00 | 78 | 1001.9 |
| 20260501164301 | 46 | 193 | 1.0 | 2.0 | 0.00 | 0.00 | 0.00 | 78 | 1002.1 |
| 20260501163756 | 46 | 234 | 0.0 | 0.0 | 0.00 | 0.00 | 0.00 | 78 | 1002.1 |
| 20260501163505 | 46 | 279 | 0.0 | 2.0 | 0.00 | 0.00 | 0.00 | 78 | 1010.2 |
| 20260501163254 | 46 | 232 | 0.0 | 1.0 | 0.00 | 0.00 | 0.00 | 78 | 1002.1 |
| 20260501163005 | 46 | 218 | 1.0 | 2.0 | 0.00 | 0.00 | 0.00 | 78 | 1010.2 |
| 20260501162750 | 46 | 228 | 1.0 | 2.0 | 0.00 | 0.00 | 0.00 | 78 | 1001.8 |
| 20260501162247 | 46 | 140 | 0.0 | 1.0 | 0.00 | 0.00 | 0.00 | 77 | 1001.9 |
| 20260501161738 | 46 | 359 | 0.0 | 1.0 | 0.00 | 0.00 | 0.00 | 76 | 1002.1 |
| 20260501161235 | 46 | 358 | 0.0 | 1.0 | 0.00 | 0.00 | 0.00 | 76 | 1001.6 |
| 20260501160731 | 46 | 332 | 1.0 | 2.0 | 0.00 | 0.00 | 0.00 | 75 | 1001.5 |
| 20260501160229 | 46 | 301 | 2.0 | 2.0 | 0.00 | 0.00 | 0.00 | 75 | 1001.4 |
| 20260501155726 | 46 | 291 | 0.0 | 1.0 | 0.00 | 0.00 | 0.00 | 75 | 1001.2 |
| 20260501155505 | 46 | 287 | 1.0 | 3.0 | 0.00 | 0.00 | 0.00 | 75 | 1009.7 |
| 20260501155223 | 46 | 285 | 0.0 | 1.0 | 0.00 | 0.00 | 0.00 | 75 | 1001.1 |
| 20260501154719 | 46 | 286 | 0.0 | 1.0 | 0.00 | 0.00 | 0.00 | 75 | 1000.9 |
| 20260501154505 | 46 | 272 | 1.0 | 3.0 | 0.00 | 0.00 | 0.00 | 75 | 1009.4 |
| 20260501154217 | 46 | 333 | 1.0 | 2.0 | 0.00 | 0.00 | 0.00 | 75 | 1001.2 |
| 20260501154005 | 46 | 301 | 0.0 | 2.0 | 0.00 | 0.00 | 0.00 | 75 | 1009.6 |
| 20260501153714 | 46 | 301 | 1.0 | 2.0 | 0.00 | 0.00 | 0.00 | 75 | 1001.3 |
| 20260501153211 | 46 | 287 | 0.0 | 2.0 | 0.00 | 0.00 | 0.00 | 75 | 1001.3 |
| 20260501153006 | 46 | 3 | 0.0 | 3.0 | 0.00 | 0.00 | 0.00 | 75 | 1009.5 |
| 20260501152707 | 46 | 311 | 0.0 | 1.0 | 0.00 | 0.00 | 0.00 | 75 | 1001.1 |
| 20260501152205 | 46 | 310 | 0.0 | 1.0 | 0.00 | 0.00 | 0.00 | 74 | 1000.8 |
| 20260501152004 | 46 | 310 | 0.0 | 2.0 | 0.00 | 0.00 | 0.00 | 75 | 1009.5 |
| 20260501151702 | 46 | 314 | 0.0 | 1.0 | 0.00 | 0.00 | 0.00 | 75 | 1000.9 |
| 20260501151504 | 46 | 300 | 2.0 | 3.0 | 0.00 | 0.00 | 0.00 | 75 | 1009.2 |
| 20260501151158 | 46 | 287 | 1.0 | 2.0 | 0.00 | 0.00 | 0.00 | 75 | 1000.7 |
| 20260501151005 | 46 | 290 | 1.0 | 4.0 | 0.00 | 0.00 | 0.00 | 75 | 1009.2 |
| 20260501150654 | 46 | 312 | 1.0 | 2.0 | 0.00 | 0.00 | 0.00 | 75 | 1000.5 |
| 20260501150506 | 46 | 291 | 1.0 | 3.0 | 0.00 | 0.00 | 0.00 | 76 | 1009.0 |
| 20260501150151 | 46 | 293 | 0.0 | 2.0 | 0.00 | 0.00 | 0.00 | 76 | 1000.4 |
| 20260501150005 | 46 | 297 | 1.0 | 4.0 | 0.00 | 0.00 | 0.81 | 76 | 1009.2 |
| 20260501145647 | 46 | 298 | 1.0 | 3.0 | 0.00 | 0.82 | 0.82 | 77 | 1000.7 |
| 20260501145505 | 46 | 301 | 0.0 | 3.0 | 0.00 | 0.00 | 0.81 | 77 | 1009.3 |
| 20260501145145 | 46 | 297 | 2.0 | 2.0 | 0.00 | 0.82 | 0.82 | 77 | 1000.6 |
| 20260501144641 | 46 | 303 | 0.0 | 3.0 | 0.00 | 0.82 | 0.82 | 77 | 1000.6 |
| 20260501144516 | 46 | 300 | 3.0 | 4.0 | 0.00 | 0.00 | 0.81 | 76 | 1009.1 |
| 20260501144136 | 46 | 297 | 1.0 | 2.0 | 0.00 | 0.82 | 0.82 | 76 | 1000.6 |
| 20260501143632 | 46 | 292 | 0.0 | 0.0 | 0.00 | 0.82 | 0.82 | 75 | 1000.6 |
| 20260501143509 | 46 | 291 | 0.0 | 0.0 | 0.00 | 0.00 | 0.81 | 75 | 1009.3 |
| 20260501143130 | 46 | 290 | 0.0 | 0.0 | 0.00 | 0.82 | 0.82 | 75 | 1000.7 |
| 20260501143010 | 46 | 293 | 0.0 | 0.0 | 0.00 | 0.00 | 0.81 | 75 | 1009.2 |
| 20260501142627 | 45 | 291 | 0.0 | 0.0 | 0.00 | 0.82 | 0.82 | 76 | 1000.7 |
| 20260501142506 | 45 | 291 | 0.0 | 0.0 | 0.00 | 0.00 | 0.81 | 76 | 1008.9 |